默认 日期 大小 文件数 浏览量 最新下载 xml
1005磁力链接相关资源由用户搜索指令自动获取,结果来源于网络,本站不存储任何资料,亦不承担任何责任,请于24小时内删除,搜索到3266个磁力,用时4ms。
    {"SPRD1005.mp4": 1471402759, "SIS001影视联盟.gif": 23040, "第一会所 宣传图.jpg": 180778, "[email protected]": 249, "第一会所-综合社区.url": 249, "與sis001保持聯絡的終極秘笈.TXT": 409, "47383ae2b3270bd1c1066c7d11d12539_6ik5_b.jpg": 197486, "第一会所 宣传 [2012年3月3日更新].txt": 499, ...
创建时间: 2018-12-08 03:47:41 大小:1.37 GB 文件数量:17 热度:268 最近下载:2025-08-16 21:20:02
    {"crack": {"run_f2b1d.exe": 98754}, "Readme!.txt": 1452, "Raxco PerfectDisk Professional v15.1 Build 1005.exe": 5843644, "Raxco PerfectDisk Professional v15.1 Build 1005.nfo": 156, "Torrent downloaded from TorReviver torrents at BTS.to.txt": 48}
创建时间: 2018-12-08 08:42:48 大小:5.67 MB 文件数量:5 热度:5 最近下载:2022-04-23 06:12:12
    {"crack": {"run_ae212.exe": 55912}, "Keys.nfo": 912, "Torrent downloaded from extremlymtorrents.me.txt": 36, "AVG PC TuneUp 2018 18.1.1005.242 Final Incl +Crack.exe": 3266912, "AVG PC TuneUp 2018 18.1.1005.242 Final Incl +Crack.nfo": 888}
创建时间: 2018-12-08 16:41:31 大小:3.17 MB 文件数量:5 热度:11 最近下载:2025-07-17 16:47:01
    {"crack": {"run_ae212.exe": 55912}, "Keys.nfo": 912, "Torrent downloaded from extremlymtorrents.me.txt": 36, "AVG PC TuneUp 2018 18.1.1005.242 Final Incl +Crack.exe": 3266914, "AVG PC TuneUp 2018 18.1.1005.242 Final Incl +Crack.nfo": 888}
创建时间: 2018-12-10 14:25:56 大小:3.17 MB 文件数量:5 热度:8 最近下载:2025-01-26 16:01:39
    {"CSI Miami - Temp.10 [HDTV][Cap.1005][Spanish].avi": 358318080}
创建时间: 2018-12-10 18:30:48 大小:341.72 MB 文件数量:1 热度:7 最近下载:2025-08-25 18:57:03
    {"crack": {"run_f2b1d.exe": 98754}, "Readme!.txt": 1452, "Raxco PerfectDisk Professional v15.1 Build 1005.exe": 5843644, "Raxco PerfectDisk Professional v15.1 Build 1005.nfo": 156, "Torrent downloaded from TorReviver torrents at BTS.to.txt": 48}
创建时间: 2018-12-11 04:06:42 大小:5.67 MB 文件数量:5 热度:4 最近下载:2022-04-23 06:10:12
    {"crack": {"run_62803.exe": 132438}, "ReadMe.inf": 752, "www.limetorrents.com.jpg": 125988, "Torrent downloaded from Divxhunt.me.txt": 92, "MICROSOFT Office PRO Plus 2018 v19.0.4268.1005 RTM + Activator.exe": 1237296}
创建时间: 2018-12-11 17:05:52 大小:1.43 MB 文件数量:5 热度:11 最近下载:2025-05-18 15:46:02
    {"Zoe Wood.mp4": 464627558, "Ally Tate.mp4": 658046696, "Lily Rader.mp4": 687641238, "Dolly Little.mp4": 819986748, "Փ������": {"QR-1024.jpg": 57368, "����Փ�� - ӑՓ�^.url": 241, "_1024�˹�����ӭ��.mht": 483, "Xiao77��̳ - Powered by phpwind.url": 199, "_1024�˹ ...
创建时间: 2018-12-12 02:44:16 大小:2.5 GB 文件数量:56 热度:11 最近下载:2023-02-26 10:10:08
    ... 资源.url": 121, "[FHD]1005最新加勒比 ...
创建时间: 2018-12-12 08:37:35 大小:214 MB 文件数量:7 热度:33 最近下载:2025-10-10 11:08:01
    {"crack": {"run_ae212.exe": 55908}, "Keys.nfo": 912, "Torrent downloaded from extremlymtorrents.me.txt": 36, "AVG PC TuneUp 2018 18.1.1005.242 Final Incl +Crack.exe": 3266914, "AVG PC TuneUp 2018 18.1.1005.242 Final Incl +Crack.nfo": 888}
创建时间: 2018-12-12 21:36:11 大小:3.17 MB 文件数量:5 热度:7 最近下载:2025-01-06 03:55:01
    {"autorun.nfo": 776, "Torrent downloaded from Flashtorrents.org.txt": 72, "AVG PC TuneUp 2018 18.0.1005.242 Final Incl +Crack.exe": 9959360, "AVG PC TuneUp 2018 18.0.1005.242 Final Incl +Crack.nfo": 744}
创建时间: 2018-12-12 23:10:13 大小:9.5 MB 文件数量:4 热度:7 最近下载:2025-01-06 22:48:08
    {"crack": {"run_ae212.exe": 55910}, "Keys.nfo": 912, "Torrent downloaded from extremlymtorrents.me.txt": 36, "AVG PC TuneUp 2018 18.1.1005.242 Final Incl +Crack.exe": 3266914, "AVG PC TuneUp 2018 18.1.1005.242 Final Incl +Crack.nfo": 888}
创建时间: 2018-12-12 23:48:47 大小:3.17 MB 文件数量:5 热度:8 最近下载:2025-02-22 03:46:02
    {"crack": {"run_ae212.exe": 55912}, "Keys.nfo": 912, "Torrent downloaded from extremlymtorrents.me.txt": 36, "AVG PC TuneUp 2018 18.1.1005.242 Final Incl +Crack.exe": 3266914, "AVG PC TuneUp 2018 18.1.1005.242 Final Incl +Crack.nfo": 888}
创建时间: 2018-12-13 03:56:12 大小:3.17 MB 文件数量:5 热度:8 最近下载:2025-01-03 20:03:08
    {"TorrentLocura.com.url": 198, "Importante leer !!!!!.txt": 321, "LaQueSeAvecina720p_1005_WWW.NEWPCT1.COM.mkv": 3515357852}
创建时间: 2018-12-13 06:21:22 大小:3.27 GB 文件数量:3 热度:5 最近下载:2022-04-23 06:16:17
    {"SIS001影视联盟.gif": 23040, "[email protected]": 238, "第一会所 宣传图.jpg": 180778, "第一会所-综合社区.url": 249, "論壇開放註冊,更多精彩,歡迎關注!.txt": 351, "與sis001保持聯絡的終極秘笈 2018年5月27日更新.TXT": 351, "939-蕾丝泳装美少女疯狂性爱夜翘臀美乳猛肏浪叫.mp4": 280304466, "938-兰州90后美女警花王梦溪无码淫乱艳照床姿销魂.mp4": ...
创建时间: 2018-12-13 07:52:11 大小:2.04 GB 文件数量:11 热度:10 最近下载:2025-05-08 21:29:03
    {"www.FENOPY.se.jpg": 107988, "Torrent downloaded from H33t.to.txt": 44, "Nero Burning ROM & Nero Express 2018 19 1 1005 Portable.exe": 14967930, "Nero Burning ROM & Nero Express 2018 19 1 1005 Portable.nfo": 992}
创建时间: 2018-12-13 13:21:46 大小:14.38 MB 文件数量:4 热度:5 最近下载:2023-03-05 14:10:04
    {"Readme!.inf": 752, "Torrent downloaded from extremlymtorrents.me.txt": 88, "MICROSOFT Office PRO Plus 2018 v18.3.4268.1005 RTM + Activator.exe": 12721644}
创建时间: 2018-12-13 13:39:45 大小:12.13 MB 文件数量:3 热度:8 最近下载:2025-01-22 22:45:04
    {"Crack": {"Launcher.exe": 1017856, "Nero Express.exe": 633344, "Visit IBcracks.com.url": 119, "Downloaded from IBcracks.com.txt": 3262}, "Setup": {"Nero Burning ROM.exe": 139687170, "Visit IBcracks.com.url": 119, "Downloaded from IBcracks.com.txt": 3262}, ...
创建时间: 2018-12-13 15:30:58 大小:134.8 MB 文件数量:9 热度:5 最近下载:2022-04-23 06:04:15
    {"Readme!.inf": 752, "Torrent downloaded from extremlymtorrents.me.txt": 88, "MICROSOFT Office PRO Plus 2018 v18.3.4268.1005 RTM + Activator.exe": 12721646}
创建时间: 2018-12-14 01:19:26 大小:12.13 MB 文件数量:3 热度:9 最近下载:2025-01-02 08:40:04
    {"Divxatope.url": 114, "Importante Leer !!.txt": 310, "Navy1005 [www.newpct.com].avi": 476883752}
创建时间: 2018-12-14 15:41:43 大小:454.79 MB 文件数量:3 热度:5 最近下载:2022-04-23 06:28:22